Regional Weather Roundup
Issued by NWS Northern Indiana

Home | Current Version | Previous Version | Graphics & Text | Print | Product List | Glossary On
Versions: 1 2 3 4 5 6 7 8 9 10 11 12 13 14 15 16 17 18 19 20 21 22 23 24 25 26 27 28 29 30 31 32 33 34 35 36 37 38 39 40 41 42 43 44 45 46 47 48 49 50
000
ASUS43 KIWX 130100
RWRIWX

KIWX WEATHER ROUNDUP
NATIONAL WEATHER SERVICE NORTHERN INDIANA
800 PM EST TUE DEC 12 2017

NOTE: "FAIR" INDICATES FEW OR NO CLOUDS BELOW 12,000 FEET WITH NO
SIGNIFICANT WEATHER AND/OR OBSTRUCTIONS TO VISIBILITY.

* THESE STATIONS ARE NOT UNDER NWS QUALITY CONTROL. THEY ALSO MAY NOT
  REPORT WEATHER SUCH AS PRECIPITATION OR FOG.

INZ001>027-130200-
NORTHERN INDIANA

CITY           SKY/WX    TMP DP  RH WIND       PRES   REMARKS
GARY*          PTCLDY    19   7  58 W9G21     30.04R WCI   9
SOUTH BEND     LGT SNOW  19  16  88 W5        29.98S FOG     WCI  12
ELKHART*       CLOUDY    21  10  63 W14       29.96S WCI   8
GOSHEN         CLOUDY    20  12  71 W12       29.96S WCI   8
MONTICELLO*    CLEAR     16   8  68 NW7       30.03S WCI   6
FORT WAYNE     CLOUDY    20  11  68 W14       29.96F WCI   7
PERU/GRISSOM   CLEAR     18   8  65 NW7       30.00S WCI   8

$$
INZ028>050-130200-
CENTRAL INDIANA

CITY           SKY/WX    TMP DP  RH WIND       PRES   REMARKS
LAFAYETTE      CLEAR     18   7  62 NW6       30.04F WCI  10
KOKOMO*        CLEAR     18   9  68 NW10      30.01S WCI   6
MUNCIE*        CLEAR     18   8  65 NW6       30.00R WCI  10
INDIANAPOLIS   PTCLDY    20   7  57 W9        30.03S WCI   9

$$
MIZ043>046-050>051-056>058-064>065-071>073-077>080-130200-
SOUTHWEST LOWER MICHIGAN

CITY           SKY/WX    TMP DP  RH WIND       PRES   REMARKS
BATTLE CREEK   CLOUDY    17   8  67 NW6       29.93S WCI   9
BENTON HARBOR  FLURRIES  23  11  60 NW8G18    29.97S WCI  14
COLDWATER*     CLOUDY    18  11  74 NW6       29.93S WCI  10
HILLSDALE*     CLOUDY    18   5  57 NW14      29.89S WCI   4
HOLLAND        LGT SNOW  19  15  84 N3        29.96S VSB 3/4
GRAND RAPIDS   CLOUDY    18  12  77 NW13      29.93F WCI   5
KALAMAZOO      CLOUDY    17  12  80 NW9       29.94F WCI   6
STURGIS*       LGT SNOW  17  15  90 CALM      29.94R
THREE RIVERS*  LGT SNOW  19  15  86 CALM      29.95S

$$
OHZ001>008-015>018-024>025-130200-
NORTHWEST OHIO

CITY           SKY/WX    TMP DP  RH WIND       PRES   REMARKS
DEFIANCE       CLOUDY    20   9  62 NW13      29.96R WCI   7
FINDLAY        CLOUDY    20   7  57 NW15      29.92S WCI   6
TOLEDO EXPRESS CLEAR     17   4  56 W12       29.93R WCI   4
TOLEDO METCALF PTCLDY    17   4  56 NW9       29.93S WCI   6
LIMA           CLOUDY    20  13  74 NW15      29.94R WCI   6

$$
AND FOR LAKE MICHIGAN COASTAL AND OPEN LAKE BUOY OBSERVATIONS

STATION/POSITION TEMP    WIND        PRES    VSBY  WAVE
                 AIR SEA DIR/SP/G                  HT/PER
                 (F)     (DEG/KT/KT) (MB)    (MI)  (FT/S)
CALUMET HARBOR    19     250/  8/ 11 1016.1S
MICHIGAN CITY     23     270/ 20/ 23   N/A
BURNS HARBOR      23     290/ 15/ 21 1016.6R
SAINT JOSEPH      25     310/ 14/ 20 1015.2

$$
&&




USA.gov is the U.S. government's official web portal to all federal, state and local government web resources and services.